Location: Burgwalden
(48.2830°N, 10.7576°E)
Time: 21:30:30
(UTC+00:00)

ATLAS 3B R/B - Pass Details

Date: 26 September 2023
Orbit: 954 x 1241 km, 63.8° (Epoch: 01 December)

Event Time Altitude Azimuth Distance (km) Brightness Sun altitude
Rises 01:55:02 0° 316° (NW) 4,085 5.7 -30.8°
Reaches altitude 10° 01:57:53 10° 323° (NW) 3,151 5.1 -30.4°
Maximum altitude 02:05:14 47° 36° (NE) 1,594 3.9 -29.4°
Drops below altitude 10° 02:12:41 10° 109° (ESE) 3,207 5.6 -28.4°
Sets 02:15:37 0° 115° (ESE) 4,163 6.2 -28.0°
